This demonstration page uses our WeatherBlox Daily Observations layout. Learn more.

Left ArrowRight Arrow

39.12711, -84.51439

Hourly Observations for November 13, 2020

Temp ( °F °C ) Dew Point ( °F °C ) Humidity (%) Winds ( mph kmh ) Pressure ( in mb ) Visibility ( mi km ) Precip ( " mm )
12:05 am 00:05 Clear with Mist and Fog 33 0.6 33 0.6 100 100 Calm 30.06 1018 2 3 0.00 0.00
12:20 am 00:20 Clear with Mist and Fog 35 1.7 33 0.6 93 93 Calm 30.05 1018 5 8 0.00 0.00
12:53 am 00:53 Clear with Mist and Fog 33 0.6 32 0 96 96 Calm 30.04 1017 5 8 0.00 0.00
1:53 am 01:53 Clear 35 1.7 32 0 89 89 Calm 30.05 1018 9 14 0.00 0.00
2:53 am 02:53 Mostly Cloudy 35 1.7 33 0.6 93 93 Calm 30.06 1018 10 16 0.00 0.00
3:53 am 03:53 Mostly Cloudy 36 2.2 35 1.7 97 97 Calm 30.05 1018 9 14 0.00 0.00
4:53 am 04:53 Cloudy 37 2.8 35 1.7 93 93 Calm 30.06 1018 9 14 0.00 0.00
5:53 am 05:53 Mostly Cloudy 38 3.3 36 2.2 93 93 Calm 30.08 1019 9 14 0.00 0.00
6:53 am 06:53 Partly Cloudy 36 2.2 35 1.7 97 97 Calm 30.10 1019 10 16 0.00 0.00
7:53 am 07:53 Sunny 35 1.7 34 1.1 96 96 Calm 30.11 1020 10 16 0.00 0.00
8:53 am 08:53 Sunny 41 5 39 3.9 93 93 Calm 30.12 1020 10 16 0.00 0.00
9:53 am 09:53 Sunny 46 7.8 41 5 83 83 Calm 30.14 1021 10 16 0.00 0.00
10:53 am 10:53 Sunny 55 12.8 37 2.8 51 51 VRB 3 6 30.14 1021 10 16 0.00 0.00
11:53 am 11:53 Sunny 57 13.9 35 1.7 44 44 NNW 6 9 30.15 1021 10 16 0.00 0.00
12:53 pm 12:53 Sunny 59 15 37 2.8 44 44 NW 9 15 30.14 1021 10 16 0.00 0.00
1:53 pm 13:53 Sunny 59 15 35 1.7 41 41 NW 7 11 30.13 1020 10 16 0.00 0.00
2:53 pm 14:53 Sunny 59 15 32 0 36 36 NNW 8 13 30.14 1021 10 16 0.00 0.00
3:53 pm 15:53 Sunny 57 13.9 33 0.6 41 41 W 14 22 30.15 1021 10 16 0.00 0.00
4:53 pm 16:53 Sunny 53 11.7 38 3.3 57 57 N 8 13 30.17 1022 10 16 0.00 0.00
5:53 pm 17:53 Clear 48 8.9 33 0.6 56 56 NNW 5 7 30.18 1022 10 16 0.00 0.00
6:53 pm 18:53 Clear 45 7.2 33 0.6 63 63 Calm 30.20 1023 10 16 0.00 0.00
7:53 pm 19:53 Clear 39 3.9 31 -0.6 73 73 ENE 3 6 30.21 1023 10 16 0.00 0.00
8:53 pm 20:53 Clear 36 2.2 31 -0.6 82 82 Calm 30.21 1023 10 16 0.00 0.00
9:53 pm 21:53 Clear 36 2.2 30 -1.1 79 79 NNE 3 6 30.22 1023 10 16 0.00 0.00
10:53 pm 22:53 Clear 33 0.6 28 -2.2 82 82 Calm 30.22 1023 10 16 0.00 0.00
11:53 pm 23:53 Clear 32 0 30 -1.1 92 92 Calm 30.22 1023 10 16 0.00 0.00

Powered by AerisWeather